Location: Newark
(54.6833°N, 25.2833°E)
Time: 21:47:51
(UTC+00:00)

Altair - Pass Details

Date: 19 November 2019
Orbit: 1502 x 1682 km, 47.2° (Epoch: 14 December)

Event Time Altitude Azimuth Distance (km) Brightness Sun altitude
Rises 06:08:24 0° 277° (W) 4,644 9.5 0.6°
Reaches altitude 10° 06:11:35 10° 270° (W) 3,670 9.0 1.0°
Maximum altitude 06:20:03 43° 204° (SSW) 2,052 8.4 1.9°
Drops below altitude 10° 06:28:45 10° 137° (SE) 3,764 12.0 2.9°
Sets 06:32:04 0° 131° (SE) 4,773 13.7 3.3°
